Weather History for Kingsville NAS, TX

Change the Weather History Date:

Friday, April 12, 2013

  Actual Average Record
Temperature  
Mean Temperature 66 °F -  
Max Temperature 82 °F 79 °F 93 °F (2009)
Min Temperature 49 °F 61 °F 45 °F (1997)
Growing Degree Days 16 (Base 50)    
Moisture  
Dew Point 55 °F    
Average Humidity 60    
Maximum Humidity 94    
Minimum Humidity 36    
Precipitation  
Precipitation 0.00 in - - ()
Sea Level Pressure  
Sea Level Pressure 29.90 in    
Wind  
Wind Speed 7 mph (ESE)    
Max Wind Speed 20 mph    
Max Gust Speed 24 mph    
Visibility 10 miles    
Events      
Averages and records for this station are not official NWS values.
T = Trace of Precipitation, MM = Missing Value Source: NWS Daily Summary

Daily Weather History Graph

Daily Weather History Graph

Search for Another Location

Airport:

Trip Planner

Search our weather history database for the weather conditions in past years. The results will help you decide how hot, cold, wet, or windy it might be!

Date:

Astronomy

Apr. 12, 2013 Rise Set
Actual Time 7:09 AM CDT 7:54 PM CDT
Civil Twilight 6:45 AM CDT 8:18 PM CDT
Nautical Twilight 6:17 AM CDT 8:46 PM CDT
Astronomical Twilight 5:49 AM CDT 9:15 PM CDT
Moon 8:31 AM CDT (4/12) 10:13 PM CDT (4/12)
Length of Visible Light 13h 32m
Length of Day
12h 45m
Waxing Crescent, 5% of the Moon is Illuminated
Apr 12
Waxing Crescent
Apr 18
First Quarter
Apr 25
Full
May 2
Last Quarter
May 9
New

Hourly Weather History & Observations

Time (CDT) Temp. Heat Index Dew Point Humidity Pressure Visibility Wind Dir Wind Speed Gust Speed Precip Events Conditions
12:56 AM - - - N/A% 29.90 in 10.0 mi SE 3.5 mph - N/A   Clear
1:56 AM - - - N/A% 29.89 in 10.0 mi South 3.5 mph - N/A   Clear
2:56 AM - - - N/A% 29.87 in 10.0 mi South 3.5 mph - N/A   Clear
3:56 AM - - - N/A% 29.88 in 10.0 mi Calm Calm - N/A   Clear
4:56 AM - - - N/A% 29.89 in 10.0 mi Calm Calm - N/A   Clear
5:56 AM - - - N/A% 29.91 in 10.0 mi Calm Calm - N/A   Clear
6:56 AM 49.6 °F - 48.0 °F 94% 29.91 in 10.0 mi North 4.6 mph - N/A   Mostly Cloudy
7:56 AM 51.3 °F - 48.9 °F 92% 29.93 in 9.0 mi North 5.8 mph - N/A   Mostly Cloudy
8:56 AM 67.3 °F - 54.0 °F 62% 29.94 in 10.0 mi NNE 5.8 mph - N/A   Mostly Cloudy
9:56 AM 68.7 °F - 57.0 °F 66% 29.95 in 10.0 mi NE 10.4 mph - N/A   Mostly Cloudy
10:56 AM 76.1 °F - 57.0 °F 51% 29.95 in 10.0 mi ESE 11.5 mph - N/A   Mostly Cloudy
11:56 AM 76.6 °F - 55.0 °F 47% 29.95 in 10.0 mi ESE 10.4 mph 18.4 mph N/A   Mostly Cloudy
12:41 PM 78.8 °F - 51.8 °F 39% 29.93 in 10.0 mi East 12.7 mph - N/A   Mostly Cloudy
12:56 PM 79.3 °F - 52.0 °F 38% 29.92 in 10.0 mi East 11.5 mph 19.6 mph N/A   Mostly Cloudy
1:56 PM 82.8 °F 81.6 °F 53.1 °F 36% 29.90 in 10.0 mi East 11.5 mph 21.9 mph N/A   Mostly Cloudy
2:56 PM 82.0 °F 81.2 °F 53.1 °F 37% 29.88 in 10.0 mi ESE 19.6 mph 23.0 mph N/A   Mostly Cloudy
3:56 PM 82.9 °F 81.9 °F 54.0 °F 37% 29.87 in 10.0 mi ESE 15.0 mph - N/A   Mostly Cloudy
4:56 PM 79.0 °F - 55.9 °F 45% 29.85 in 10.0 mi ESE 17.3 mph 24.2 mph N/A   Mostly Cloudy
5:56 PM 75.9 °F - 55.9 °F 50% 29.86 in 10.0 mi ESE 18.4 mph - N/A   Mostly Cloudy
6:56 PM 73.9 °F - 57.0 °F 55% 29.87 in 10.0 mi ESE 13.8 mph - N/A   Clear
7:56 PM 70.0 °F - 59.0 °F 68% 29.88 in 10.0 mi ESE 15.0 mph - N/A   Clear
8:56 PM 68.0 °F - 59.0 °F 73% 29.89 in 10.0 mi SE 9.2 mph - N/A   Clear
9:56 PM 66.9 °F - 60.1 °F 79% 29.91 in 10.0 mi ESE 6.9 mph - N/A   Clear
10:56 PM 64.9 °F - 60.1 °F 84% 29.92 in 10.0 mi ESE 6.9 mph - N/A   Clear
11:56 PM 64.0 °F - 59.0 °F 84% 29.93 in 10.0 mi East 6.9 mph - N/A   Clear